sat.trackr.live / text

‹ back to catalog

STARLINK-5088

NORAD 54000 · 2022-125AN

PAYLOAD ACTIVE UNKNOWN

§ Identity

Operator
Country
US
Launch date
2022-10-05
Launch site
AFWTR
Launch vehicle
Mass (kg)
RCS (m²)

Purposes: comms

External: N2YO · Heavens-Above · Gunter

§ Orbital elements

Epoch: 2026-05-25T05:16:19.513920Z

Period
95.43 min
Inclination
53.2134°
Eccentricity
0.0001468
Mean motion
15.08906912 rev/d
Perigee alt
538.5 km
Apogee alt
540.6 km
Semi-major
6,917.7 km
B*
-8.6076e-4
RAAN
220.7507°
Arg perigee
76.5621°
Mean anomaly
283.5535°
Rev number
20,115

§ Raw data

STARLINK-50881 54000U 22125AN  26145.21967030 -.00013986  00000+0 -86076-3 0  99952 54000  53.2134 220.7507 0001468  76.5621 283.5535 15.08906912201159

JSON: /api/v1/satellites/54000 · /tle

For live sub-satellite position, see the globe view (requires WebGL).

§ Visibility from observer

Set your observer location to see the next 7 days of passes ≥ 10°. The values pass through the URL so the page stays shareable.

No JS? Fill the form by hand. The geolocation button needs JavaScript.